OBJECT B, 62726

Orbit data source: Space-Track

You're viewing an Uncataloged Satellite

Recently launched and/or uncataloged satellites may have evolving metadata. Metadata may include but not limited to: Owner, Maufacturer, Bus, Motor, and Mission.

OBJECT B, 62726 is a Chinese satellite in SSO that was launched on Fri, 17 Jan 2025 UTC via a CHANG ZHENG 2D launch vehicle from the Jiuquan Satellite Launch Center, China (JSC). Unknown objects in Earth's orbit typically refer to objects detected orbiting the Earth but have not yet been identified or cataloged. These objects could be anything from previously untracked satellites, spent rocket stages, debris from satellite collisions, or even natural meteoroids temporarily captured by Earth's gravity.

Loading next visibility...
Identifier
62726, 2025-012B
Orbit
SSO
Country
Flag of CNCN / PRC
Related business
None
Manufacturer
Unknown
Mission
Operational Civil Imaging
Bus & Motor
Unknown
Mass
Unknown
Launch date (UTC)
2025-01-17 (10 months ago)
Launch vehicle
CHANG ZHENG 2D
Launch site
Jiuquan Satellite Launch Center, China (JSC)
Object type
Unknown
Shape & HBR
Box + 2 Pan, 2.0 m
Radar Cross Section
1.475 m², Large (>1 m²)

Expand to show TLE details & history
Last TLE update: 17 hours ago

TLE from 17 hours ago
0 OBJECT B
1 62726U 25012B   25306.20494251  .00005922  00000-0  29119-3 0  9999
2 62726  97.4510  17.5782 0009240 358.2560   1.8640 15.18365744 43779
Epoch: 2025-11-02T04:55Z
TLE epoch observation values (Epoch: 2025-11-02T04:55:07.032Z)
Latitude
-0.00008°
Longitude
-97.92511°
Altitude
507.503 km
Speed
7.614 km/s
True Right ascension
01h 10m 18s
True Declination
0° 00' 00"
Sunlit
Object was in full shadow at epoch
Visualization orbit readout
Latitude
Unknown
Longitude
Unknown
Altitude
Unknown
Speed
Unknown
Apparent Right ascension
Unknown
Apparent Declination
Unknown
Sunlit
N/A
Visualization observer readout
Local Sidereal Time
17:17:05
Azimuth
Unknown
Elevation
Unknown
Doppler factor
Unknown
Orbital elements
Apogee altitude
514.112 km
Perigee altitude
501.387 km
Semi-major axis
6,885.886 km
Eccentricity
0.00092
Inclination
97.451°
RAAN
17.5782°
Arg. of periapsis
358.256°
True anomaly
1.86745°
Mean anomaly
1.864°
Eccentric anomaly
1.86572°
Mean motion
3.79842 °/min
Orbital period
94.78 mins
BSTAR
0.00029119
Loading maneuver chart data...
Computing Atmospheric mass density...
Loading historical data...
Loading historical data...
Loading historical data...
Loading historical data...
Loading historical data...
Loading historical data...
Loading historical data...
Other satellites on launch #12 in the year 2025 (2025-01-17 UTC)

Documentation

Showing up to 5 results
|